Location: Piotrkow Trybunalski
(51.4000°N, 19.6830°E)
Time: 07:18:26
(UTC+02:00)

STRAND 1 - Pass Details

Date: 29 February 2024
Orbit: 764 x 779 km, 98.4° (Epoch: 24 April)

Event Time Altitude Azimuth Distance (km) Brightness Sun altitude
Rises 04:57:33 0° 160° (SSE) 3,252 ? -14.8°
Reaches altitude 10° 04:59:52 10° 159° (SSE) 2,329 ? -14.5°
Maximum altitude 05:05:00 82° 74° (ENE) 795 ? -13.7°
Drops below altitude 10° 05:10:11 10° 347° (NNW) 2,344 ? -12.9°
Sets 05:12:31 0° 346° (NNW) 3,275 ? -12.5°
